{"data":{"norad_id":85210,"epoch":"2026-05-24T04:25:51.407328Z","epoch_age_seconds":145644,"freshness":"FRESH","line1":"1 85210U          26144.18462277  .00000866  00000+0  85985-3 0  9997","line2":"2 85210  99.8719 294.7263 0214182 258.2789 284.3402 13.71755196624429","mean_motion":13.71755196,"eccentricity":0.0214182,"inclination_deg":99.8719,"raan_deg":294.7263,"arg_perigee_deg":258.2789,"mean_anomaly_deg":284.3402,"bstar":0.00085985,"rev_number":62442,"period_min":104.97499876064,"perigee_km":835.3939537816,"apogee_km":1151.15876501,"semimajor_km":7371.4133593958,"source":"CELESTRAK","updated_at":"2026-05-25T13:38:11.431355Z"}}